Precipitable_Water
0.56 0.54 0.53 0.52 0.51 0.50 0.50 0.50 0.47 0.44 0.42 0.41 0.40 0.39 0.41 0.47 0.44 0.42 0.27 0.38 0.59 0.65 0.70 0.96 0.94 1.02 1.03 0.92 1.12 1.16 0.81 0.84 0.84 0.73 0.63 0.67 0.68 0.94 1.20 1.04 1.22 1.53 1.30 1.41 1.59
0.57 0.55 0.51 0.50 0.50 0.51 0.49 0.48 0.48 0.47 0.44 0.42 0.41 0.40 0.38 0.43 0.32 0.25 0.29 0.42 0.51 0.63 0.54 0.66 0.81 0.91 0.82 0.89 0.97 0.94 0.86 0.88 1.03 0.87 0.80 0.72 0.69 0.75 0.78 0.85 1.06 1.13 1.37 1.43 1.58
0.54 0.54 0.52 0.49 0.48 0.48 0.49 0.49 0.48 0.46 0.46 0.43 0.42 0.42 0.39 0.40 0.23 0.33 0.46 0.41 0.43 0.48 0.45 0.59 0.75 0.78 0.74 0.80 0.84 0.94 0.88 0.96 0.88 0.89 0.94 0.80 0.70 0.70 0.80 0.72 0.93 1.14 1.23 1.31 1.46
0.49 0.49 0.49 0.48 0.47 0.46 0.46 0.47 0.48 0.47 0.45 0.44 0.43 0.43 0.42 0.35 0.24 0.47 0.44 0.39 0.37 0.40 0.42 0.51 0.62 0.65 0.67 0.70 0.77 0.68 0.86 0.92 1.00 0.82 0.94 0.74 0.80 0.71 0.80 0.90 0.98 1.16 1.23 1.28 1.32
0.49 0.48 0.47 0.45 0.44 0.44 0.44 0.44 0.44 0.46 0.46 0.44 0.44 0.46 0.36 0.28 0.24 0.48 0.45 0.42 0.38 0.32 0.36 0.50 0.54 0.63 0.57 0.66 0.64 0.58 0.77 0.86 0.78 0.76 0.83 0.93 0.77 0.75 0.73 0.97 1.01 1.05 1.13 1.19 1.25
0.49 0.47 0.44 0.42 0.43 0.42 0.42 0.42 0.43 0.43 0.44 0.44 0.43 0.47 0.33 0.21 0.39 0.49 0.43 0.42 0.33 0.28 0.33 0.51 0.52 0.65 0.59 0.57 0.55 0.57 0.61 0.67 0.67 0.67 0.71 0.91 0.80 0.74 0.72 0.84 0.90 0.94 0.95 1.07 1.17
0.51 0.49 0.46 0.43 0.42 0.40 0.38 0.38 0.40 0.43 0.44 0.45 0.48 0.43 0.27 0.21 0.42 0.40 0.39 0.43 0.38 0.39 0.28 0.43 0.54 0.55 0.56 0.48 0.56 0.54 0.54 0.58 0.59 0.61 0.71 0.82 0.81 0.66 0.77 0.74 0.86 0.87 0.87 0.95 1.08
0.56 0.52 0.48 0.43 0.41 0.40 0.37 0.36 0.35 0.39 0.47 0.53 0.56 0.47 0.21 0.27 0.41 0.41 0.40 0.38 0.43 0.46 0.37 0.39 0.46 0.49 0.48 0.48 0.44 0.43 0.49 0.47 0.58 0.65 0.63 0.65 0.67 0.59 0.83 0.77 0.76 0.88 0.84 0.87 0.95
0.64 0.59 0.53 0.48 0.43 0.39 0.36 0.35 0.37 0.41 0.50 0.59 0.50 0.47 0.23 0.36 0.33 0.41 0.41 0.29 0.30 0.34 0.40 0.39 0.39 0.38 0.42 0.36 0.34 0.40 0.39 0.43 0.51 0.72 0.68 0.55 0.78 0.91 0.90 0.81 0.76 0.82 0.84 0.83 0.89
0.71 0.66 0.60 0.53 0.47 0.42 0.37 0.34 0.42 0.52 0.61 0.59 0.52 0.42 0.36 0.30 0.39 0.36 0.37 0.32 0.32 0.31 0.27 0.32 0.33 0.33 0.36 0.34 0.26 0.32 0.39 0.45 0.47 0.64 0.65 0.62 0.69 0.93 0.93 0.86 0.81 0.77 0.84 0.85 0.83
0.74 0.70 0.65 0.59 0.50 0.44 0.40 0.37 0.40 0.43 0.59 0.36 0.41 0.30 0.32 0.41 0.40 0.42 0.43 0.39 0.33 0.26 0.23 0.28 0.23 0.25 0.34 0.35 0.35 0.37 0.46 0.43 0.56 0.77 0.70 0.70 0.73 0.87 0.94 0.91 0.80 0.80 0.77 0.84 0.87
0.80 0.76 0.70 0.62 0.54 0.47 0.48 0.37 0.32 0.32 0.21 0.24 0.28 0.40 0.44 0.42 0.34 0.41 0.38 0.32 0.25 0.21 0.25 0.20 0.15 0.22 0.35 0.39 0.37 0.38 0.43 0.47 0.57 0.70 0.77 0.67 0.68 0.72 1.00 0.92 0.85 0.76 0.75 0.79 0.83
0.85 0.81 0.76 0.66 0.55 0.62 0.48 0.35 0.41 0.35 0.23 0.22 0.21 0.19 0.25 0.39 0.28 0.26 0.33 0.35 0.22 0.19 0.25 0.17 0.17 0.19 0.27 0.33 0.34 0.35 0.38 0.46 0.51 0.65 0.68 0.62 0.61 0.75 0.97 0.91 0.86 0.81 0.81 0.78 0.81
0.83 0.81 0.79 0.73 0.57 0.54 0.45 0.52 0.41 0.36 0.21 0.20 0.22 0.22 0.22 0.23 0.20 0.24 0.26 0.28 0.28 0.20 0.19 0.22 0.22 0.18 0.19 0.26 0.33 0.31 0.39 0.44 0.47 0.59 0.56 0.71 0.51 0.71 0.85 0.95 0.86 0.74 0.81 0.82 0.81
0.83 0.81 0.81 0.73 0.61 0.51 0.52 0.53 0.43 0.37 0.16 0.26 0.25 0.30 0.25 0.21 0.22 0.22 0.23 0.22 0.17 0.20 0.24 0.16 0.21 0.18 0.16 0.20 0.30 0.32 0.41 0.40 0.44 0.50 0.63 0.70 0.61 0.67 0.79 0.83 0.87 0.87 0.79 0.87 0.93
0.81 0.79 0.79 0.68 0.71 0.61 0.59 0.51 0.41 0.27 0.17 0.26 0.30 0.29 0.25 0.23 0.28 0.33 0.23 0.24 0.27 0.20 0.25 0.23 0.23 0.21 0.18 0.19 0.25 0.33 0.38 0.37 0.39 0.43 0.42 0.56 0.60 0.54 0.70 0.71 0.83 0.99 1.02 0.90 0.92
0.77 0.75 0.72 0.76 0.57 0.64 0.62 0.47 0.31 0.23 0.31 0.26 0.28 0.33 0.32 0.28 0.25 0.31 0.27 0.24 0.20 0.15 0.18 0.22 0.21 0.21 0.21 0.18 0.21 0.24 0.29 0.27 0.26 0.30 0.31 0.48 0.60 0.61 0.76 0.83 0.80 0.91 1.14 1.07 0.92
0.70 0.69 0.69 0.70 0.73 0.67 0.54 0.38 0.27 0.30 0.30 0.33 0.31 0.31 0.29 0.34 0.30 0.27 0.28 0.24 0.23 0.22 0.20 0.18 0.16 0.20 0.22 0.16 0.18 0.19 0.24 0.24 0.21 0.24 0.31 0.39 0.37 0.51 0.82 0.86 0.92 1.02 1.12 1.05 1.00
0.58 0.55 0.55 0.60 0.69 0.67 0.50 0.29 0.28 0.33 0.37 0.33 0.32 0.27 0.28 0.30 0.30 0.28 0.28 0.28 0.24 0.24 0.19 0.18 0.19 0.27 0.24 0.24 0.17 0.17 0.19 0.26 0.27 0.32 0.31 0.36 0.43 0.49 0.56 0.77 0.83 0.86 0.85 0.82 0.97
0.47 0.44 0.44 0.59 0.59 0.58 0.42 0.32 0.32 0.38 0.37 0.37 0.30 0.31 0.27 0.29 0.29 0.29 0.28 0.32 0.32 0.30 0.27 0.24 0.21 0.27 0.27 0.25 0.22 0.16 0.21 0.19 0.24 0.23 0.23 0.30 0.35 0.44 0.49 0.57 0.79 0.82 0.78 0.72 0.70
0.44 0.35 0.36 0.48 0.49 0.48 0.32 0.32 0.38 0.41 0.39 0.34 0.31 0.28 0.29 0.30 0.32 0.31 0.29 0.31 0.31 0.34 0.34 0.29 0.25 0.25 0.30 0.24 0.21 0.19 0.16 0.18 0.22 0.24 0.24 0.25 0.33 0.48 0.53 0.58 0.65 0.69 0.71 0.69 0.64
0.40 0.26 0.42 0.57 0.37 0.40 0.32 0.39 0.44 0.41 0.43 0.38 0.36 0.31 0.28 0.30 0.31 0.31 0.32 0.32 0.36 0.33 0.31 0.35 0.29 0.23 0.26 0.32 0.29 0.24 0.17 0.16 0.16 0.20 0.22 0.27 0.30 0.48 0.56 0.63 0.65 0.65 0.62 0.58 0.56
0.35 0.31 0.32 0.42 0.26 0.26 0.30 0.32 0.39 0.40 0.43 0.43 0.38 0.34 0.31 0.28 0.28 0.31 0.32 0.34 0.36 0.34 0.30 0.31 0.31 0.24 0.24 0.30 0.34 0.24 0.22 0.20 0.17 0.20 0.24 0.23 0.25 0.42 0.53 0.64 0.72 0.64 0.62 0.64 0.68
0.41 0.25 0.28 0.35 0.34 0.29 0.26 0.25 0.25 0.32 0.35 0.42 0.45 0.43 0.36 0.30 0.30 0.29 0.32 0.35 0.36 0.36 0.40 0.38 0.34 0.30 0.24 0.26 0.33 0.30 0.24 0.23 0.20 0.15 0.16 0.24 0.34 0.37 0.49 0.53 0.63 0.63 0.63 0.65 0.62
0.44 0.32 0.36 0.29 0.30 0.41 0.47 0.41 0.35 0.36 0.40 0.48 0.46 0.46 0.41 0.33 0.31 0.28 0.31 0.33 0.36 0.38 0.38 0.39 0.34 0.36 0.33 0.35 0.38 0.35 0.31 0.27 0.23 0.19 0.17 0.16 0.27 0.42 0.44 0.52 0.62 0.62 0.64 0.62 0.61
0.41 0.37 0.46 0.36 0.32 0.34 0.36 0.37 0.35 0.37 0.39 0.39 0.44 0.49 0.50 0.44 0.48 0.41 0.39 0.34 0.32 0.38 0.38 0.38 0.34 0.41 0.39 0.39 0.38 0.40 0.38 0.29 0.25 0.24 0.21 0.20 0.22 0.28 0.42 0.48 0.59 0.63 0.62 0.60 0.57
0.56 0.55 0.49 0.38 0.34 0.28 0.23 0.29 0.38 0.39 0.42 0.44 0.42 0.47 0.50 0.55 0.60 0.57 0.53 0.46 0.43 0.39 0.38 0.37 0.35 0.38 0.35 0.41 0.41 0.36 0.38 0.37 0.33 0.25 0.24 0.19 0.20 0.28 0.32 0.42 0.52 0.66 0.69 0.63 0.59
Wind_Speed
14 14 14 14 15 15 15 15 14 14 14 14 14 14 14 14 14 12 14 15 18 18 15 13 13 11 9 9 9 10 9 4 6 4 6 5 5 5 8 8 10 3 13 16 19
15 15 15 15 15 15 15 15 15 15 14 14 14 14 15 14 14 16 15 16 15 17 18 17 15 12 11 10 9 5 5 3 7 3 6 7 6 5 6 9 8 9 14 17 18
15 15 15 16 16 16 16 16 16 16 15 15 14 14 14 14 13 11 8 12 16 19 20 19 17 15 15 11 11 7 3 6 9 6 7 6 7 5 9 8 9 15 15 17 18
15 16 16 17 17 17 17 17 16 16 16 16 15 15 14 11 7 6 7 9 10 18 21 21 19 17 17 14 12 12 11 6 1 6 6 6 8 6 6 8 11 12 15 17 17
17 17 18 18 18 18 18 18 17 17 17 16 15 15 12 11 16 14 11 10 11 16 21 22 21 19 18 16 15 14 15 12 6 5 7 8 7 8 5 10 11 13 15 17 18
18 18 18 18 19 19 19 19 19 19 18 17 15 13 11 15 10 10 13 12 14 16 20 22 20 19 18 18 18 15 14 13 9 9 9 12 9 7 8 9 11 13 15 17 19
19 19 19 19 19 20 20 21 21 20 19 17 15 13 14 15 10 9 11 14 14 16 19 22 22 19 19 18 18 17 17 12 13 11 9 13 12 9 11 10 13 13 15 17 19
21 20 21 21 21 21 21 21 20 20 18 17 15 14 15 14 14 15 13 15 17 18 19 20 22 22 20 18 19 19 18 17 17 14 11 14 15 10 14 11 13 14 15 17 19
22 22 22 22 22 22 22 22 20 18 17 15 14 14 17 12 14 14 15 16 17 19 20 21 21 24 22 19 19 21 19 19 16 15 13 14 10 9 13 13 14 15 15 17 18
23 23 23 23 23 23 23 21 17 15 15 15 16 14 16 14 12 12 12 14 15 18 21 23 22 23 25 22 19 20 20 19 18 17 17 16 8 9 18 16 15 16 16 17 18
25 25 25 25 24 24 20 15 13 13 14 17 12 15 13 12 15 11 10 13 15 17 21 24 25 27 28 27 23 20 19 19 17 14 18 17 12 12 24 18 17 17 18 18 18
27 27 27 27 26 24 19 16 17 18 21 23 25 25 22 13 12 16 14 14 16 18 20 23 29 29 28 29 27 25 24 23 17 17 21 19 17 14 23 19 18 19 18 19 19
29 28 28 28 27 21 21 23 21 21 22 24 27 26 27 24 23 20 20 19 18 21 21 24 24 27 30 31 30 28 26 22 20 18 22 18 18 19 23 20 18 18 20 19 20
30 30 29 29 22 21 20 18 19 21 21 22 23 24 25 26 29 26 25 24 22 23 24 25 25 26 32 34 32 31 27 25 22 16 20 21 19 21 22 23 20 19 20 21 20
33 33 31 29 28 24 23 22 21 20 19 12 18 14 17 26 14 26 29 28 28 26 24 24 27 29 30 35 34 31 28 27 26 24 21 22 21 17 27 26 24 21 21 21 22
36 36 34 30 27 29 27 25 21 20 23 18 16 17 20 24 24 15 24 27 26 29 28 26 24 29 30 29 35 31 29 28 27 26 26 25 23 24 24 25 26 26 24 23 22
37 38 37 34 28 25 25 24 22 26 20 23 21 21 25 24 29 20 23 27 27 27 28 28 28 27 28 30 31 36 32 27 27 28 27 26 27 19 25 29 23 21 24 25 23
40 40 35 34 32 31 28 26 32 28 34 21 21 25 27 28 30 30 27 28 31 29 24 26 27 29 28 32 31 33 36 31 30 28 27 29 30 26 24 25 23 24 26 28 26
42 37 36 35 34 32 31 35 33 35 29 27 31 28 30 31 31 31 33 31 32 34 31 25 30 25 33 29 33 32 37 36 34 30 28 27 26 28 27 25 23 24 25 25 27
41 40 36 35 34 33 36 46 37 39 34 32 34 33 35 34 35 35 34 33 33 34 34 31 26 28 28 32 35 37 29 33 36 36 35 30 29 21 25 24 26 22 25 23 20
41 37 35 29 30 35 42 44 45 47 43 41 39 38 39 36 37 38 38 35 35 34 34 34 32 28 30 35 34 30 34 35 33 36 31 30 29 24 23 25 28 25 25 26 22
41 38 30 31 36 38 43 46 46 47 45 43 44 45 42 38 39 38 40 39 36 31 35 36 30 32 34 32 33 37 37 37 32 34 35 35 31 24 18 18 22 24 26 24 27
41 43 40 41 42 41 44 48 47 47 47 48 47 44 43 44 42 41 39 39 37 39 37 34 36 30 34 33 34 39 37 34 37 36 33 35 34 33 21 18 20 20 23 22 14
38 36 35 36 42 44 44 47 46 45 45 45 43 45 45 45 46 43 40 37 35 35 26 31 34 40 34 34 29 34 38 37 37 33 37 37 33 36 27 22 22 21 24 23 20
33 33 33 34 34 27 34 38 40 41 40 36 37 39 33 41 44 45 43 39 38 39 34 35 35 35 39 37 32 33 36 38 37 39 36 36 40 31 37 29 25 28 22 23 22
28 27 26 31 33 34 30 30 35 39 36 34 35 39 34 35 27 32 31 39 40 41 36 41 37 34 35 35 35 32 35 36 38 39 39 39 38 38 35 37 28 26 26 29 31
21 24 22 23 24 25 29 31 23 25 35 34 34 36 37 33 34 36 39 41 40 39 40 37 38 35 36 35 33 34 37 32 33 33 35 34 37 34 35 32 33 27 24 29 29
Wind_Direction
317 316 315 315 315 314 314 314 315 313 311 306 301 297 295 294 289 269 251 235 231 221 223 222 220 225 229 239 245 247 283 272 141 88 129 171 115 107 124 146 143 185 160 159 157
317 317 315 313 312 312 312 312 311 310 309 308 306 299 295 294 285 269 252 236 226 216 217 217 216 220 227 226 231 226 248 140 265 256 165 172 153 146 151 162 162 165 156 161 165
318 317 316 314 311 309 308 308 309 307 305 304 304 306 299 294 283 267 234 224 224 219 219 220 222 223 228 230 232 179 163 284 304 138 201 173 153 173 155 187 163 153 163 169 171
319 316 314 313 311 308 306 305 304 305 305 302 300 300 302 284 256 245 225 226 228 218 216 217 218 223 223 227 231 215 205 252 341 211 192 186 164 171 183 192 172 169 172 176 177
320 317 314 311 309 306 304 302 302 302 301 300 299 297 293 274 257 254 245 237 228 212 211 213 215 218 224 225 233 230 215 245 239 222 216 190 176 167 168 160 169 170 174 179 180
318 317 315 313 309 306 302 300 297 296 296 295 295 294 282 273 272 238 243 236 225 213 212 214 216 217 227 229 235 236 237 247 247 234 222 204 183 179 181 173 173 173 178 182 183
317 315 314 313 311 308 305 300 295 291 290 289 286 281 275 266 267 248 245 229 222 215 214 215 218 221 225 235 234 243 249 237 241 243 221 217 188 211 183 186 179 182 182 183 184
316 314 313 312 311 309 306 302 296 289 285 281 278 273 274 273 262 253 244 235 229 221 220 217 218 225 230 232 240 241 241 242 231 221 214 210 209 202 187 191 187 185 187 186 188
313 312 312 311 309 308 307 301 294 287 279 275 272 270 276 270 248 245 238 234 228 226 222 220 219 220 224 232 235 232 236 232 243 205 197 209 203 195 190 194 193 192 190 190 190
311 310 310 309 308 307 305 298 290 284 275 268 266 273 266 252 238 238 233 227 228 222 221 218 220 221 220 222 226 226 226 228 218 218 208 202 197 229 235 205 205 199 196 195 195
308 306 306 306 305 305 302 297 289 281 268 260 259 254 279 244 240 226 226 223 224 221 219 217 219 219 218 219 225 233 229 227 229 222 218 206 216 237 216 213 207 203 203 199 201
305 305 303 301 300 297 288 283 293 287 282 266 260 256 250 247 236 229 232 225 222 222 220 221 227 224 221 220 226 234 240 239 231 222 216 217 207 200 212 211 208 206 205 206 204
302 302 302 300 297 286 281 282 280 286 280 273 255 248 242 242 246 239 231 227 230 228 223 230 228 225 222 221 222 230 234 237 241 222 214 220 226 205 207 208 210 211 209 209 208
300 299 300 300 284 287 281 283 282 285 277 271 250 247 237 237 244 238 234 231 234 234 234 236 233 223 225 224 222 228 227 237 247 206 225 235 232 229 225 212 214 212 213 212 212
296 295 295 291 282 275 277 282 282 275 274 271 231 249 234 225 252 231 229 231 235 233 235 235 231 230 223 226 223 230 228 234 240 245 223 221 233 248 223 211 213 218 217 218 216
294 292 291 283 273 272 273 274 268 259 259 257 239 237 225 227 231 228 218 226 233 233 236 240 235 231 232 225 227 227 232 238 238 240 243 228 231 244 224 220 236 222 223 220 218
294 291 286 276 268 273 270 260 255 250 259 253 236 239 233 226 226 224 217 220 223 223 232 234 236 233 228 230 223 226 225 231 233 232 241 237 225 235 241 223 230 230 235 218 224
295 292 282 272 266 262 259 252 249 255 243 260 252 237 236 229 228 229 226 228 224 225 231 232 232 229 224 228 225 222 225 227 230 232 240 236 241 236 214 225 230 235 223 223 227
296 289 283 271 260 256 252 247 252 248 258 250 252 251 238 235 234 229 226 231 228 225 231 233 234 235 228 224 223 223 226 228 235 239 242 241 239 240 237 227 229 225 221 222 227
292 288 281 271 258 250 250 249 253 255 258 256 256 253 247 234 232 230 229 229 230 230 228 237 248 232 226 226 228 228 226 225 230 235 239 239 243 239 231 221 219 237 233 228 230
289 285 281 272 253 254 252 255 255 256 258 258 258 255 250 241 239 233 235 236 231 230 228 230 238 239 226 222 226 223 228 230 232 234 239 241 241 236 234 229 227 224 231 234 232
287 279 281 269 263 260 258 257 258 257 256 255 250 250 250 248 243 243 235 235 232 233 228 227 232 236 238 229 226 226 226 228 232 232 233 241 240 232 248 222 221 236 233 233 232
285 281 273 269 267 265 264 262 259 257 253 251 251 250 245 244 245 245 245 239 236 231 231 228 226 231 234 236 227 223 227 229 233 238 241 235 240 235 238 235 231 230 224 224 223
285 282 278 267 264 263 265 263 261 256 254 251 250 250 246 245 239 242 242 242 232 226 229 221 231 226 232 232 228 224 226 228 231 233 237 239 238 235 229 228 233 225 227 225 223
281 278 279 274 267 265 271 270 263 260 251 255 249 243 249 243 238 238 237 240 235 229 228 225 231 233 228 236 229 231 228 228 229 235 236 237 238 235 233 235 231 230 227 227 222
278 279 278 275 268 264 262 262 261 256 248 253 246 241 245 241 241 237 240 236 233 228 228 223 228 231 234 229 232 234 232 229 230 233 238 241 244 237 238 237 234 224 230 234 232
277 275 273 270 270 268 263 260 277 268 246 248 247 241 239 239 242 241 238 236 236 230 231 221 224 225 232 231 231 232 233 233 234 234 234 236 241 240 240 237 234 234 231 225 229